Weather History for San Jose, Costa Rica

Change the Weather History Date:

Saturday, April 7, 2012

  Actual Average Record
Temperature  
Mean Temperature 74 °F -  
Max Temperature 84 °F 83 °F 90 °F (2014)
Min Temperature 64 °F 65 °F 62 °F (2008)
Cooling Degree Days 9    
Growing Degree Days 24 (Base 50)    
Moisture  
Dew Point 65 °F    
Average Humidity 77    
Maximum Humidity 100    
Minimum Humidity 43    
Precipitation  
Precipitation 0.24 in 0.16 in - ()
Sea Level Pressure  
Sea Level Pressure 29.99 in    
Wind  
Wind Speed 8 mph ()    
Max Wind Speed 14 mph    
Max Gust Speed -    
Visibility 6.2 miles    
Events Rain , Thunderstorm    
Averages and records for this station are not official NWS values.
T = Trace of Precipitation, MM = Missing Value Source: Averaged Metar Reports

Daily Weather History Graph

Daily Weather History Graph

Search for Another Location

Airport:

Trip Planner

Search our weather history database for the weather conditions in past years. The results will help you decide how hot, cold, wet, or windy it might be!

Date:

Astronomy

Apr. 07, 2012 Rise Set
Actual Time 5:30 AM CST 5:47 PM CST
Civil Twilight 5:09 AM CST 6:08 PM CST
Nautical Twilight 4:44 AM CST 6:33 PM CST
Astronomical Twilight 4:19 AM CST 6:57 PM CST
Moon 6:53 PM CST (4/7) 6:00 AM CST (4/7)
Length of Visible Light 12h 59m
Length of Day
12h 16m
Full, 99% of the Moon is Illuminated
Apr 7
Full
Apr 13
Last Quarter
Apr 21
New
Apr 29
First Quarter
May 5
Full

Hourly Weather History & Observations

Time (CST) Temp. Heat Index Dew Point Humidity Pressure Visibility Wind Dir Wind Speed Gust Speed Precip Events Conditions
12:00 AM 68 °F - 64 °F 82% 29.82 in 9 mi NNE 9.2 mph - -   Clear
12:00 AM 68.0 °F - 64.4 °F 88% 30.00 in - NNE 9.2 mph - N/A   Clear
1:00 AM 68.0 °F - 62.6 °F 83% 29.98 in - East 8.1 mph - N/A   Clear
2:00 AM 68.0 °F - 62.6 °F 83% 29.97 in - ENE 10.4 mph - N/A   Clear
3:00 AM 66 °F - 61 °F 79% 29.83 in 9 mi ENE 6.9 mph - -   Scattered Clouds
3:00 AM 66.2 °F - 60.8 °F 83% 29.97 in - ENE 6.9 mph - N/A   Clear
4:00 AM 66.2 °F - 60.8 °F 83% 29.98 in - ENE 9.2 mph - N/A   Clear
5:00 AM 64.4 °F - 60.8 °F 88% 30.00 in - NNE 8.1 mph - N/A   Clear
6:00 AM 68 °F - 61 °F 73% 29.88 in 12 mi NE 10.4 mph - -   Partly Cloudy
6:00 AM 68.0 °F - 60.8 °F 78% 30.01 in - NE 10.4 mph - N/A   Clear
7:00 AM 73.4 °F - 60.8 °F 65% 30.03 in - East 6.9 mph - N/A   Clear
8:00 AM 77.0 °F - 60.8 °F 57% 30.05 in - East 9.2 mph - N/A   Clear
9:00 AM 78 °F - 60 °F 43% 29.92 in 12 mi ESE 10.4 mph - -   Partly Cloudy
9:00 AM 78.8 °F - 59.0 °F 51% 30.06 in - ESE 10.4 mph - N/A   Clear
9:44 AM 78.8 °F - 66.2 °F 65% 30.07 in - SSW 6.9 mph - N/A   Clear
10:00 AM 78.8 °F - 66.2 °F 65% 30.07 in - SW 10.4 mph - N/A   Clear
11:00 AM 78.8 °F - 66.2 °F 65% 30.06 in 6.2 mi WSW 11.5 mph - N/A   Mostly Cloudy
12:00 PM 80 °F - 67 °F 57% 29.89 in 12 mi WSW 9.2 mph - -   Scattered Clouds
12:00 PM 80.6 °F 83.2 °F 68.0 °F 65% 30.03 in 6.2 mi WSW 9.2 mph - N/A   Mostly Cloudy
1:00 PM 82.4 °F 84.6 °F 66.2 °F 58% 30.01 in 6.2 mi WSW 9.2 mph - N/A   Mostly Cloudy
2:00 PM 84.2 °F 87.3 °F 68.0 °F 58% 29.97 in 6.2 mi SW 8.1 mph - N/A   Scattered Clouds
3:00 PM 82 °F - 71 °F 61% 29.79 in 6 mi WSW 13.8 mph - - Thunderstorm Thunderstorm
3:00 PM 82.4 °F 85.4 °F 68.0 °F 62% 29.95 in 6.2 mi WSW 13.8 mph - N/A Thunderstorm Scattered Clouds
4:00 PM 75.2 °F - 68.0 °F 78% 29.97 in 6.2 mi SW 11.5 mph - N/A Rain Light Rain
5:00 PM 73.4 °F - 68.0 °F 83% 29.99 in 6.2 mi South 4.6 mph - N/A   Mostly Cloudy
6:00 PM 72 °F - 68 °F 83% 29.87 in 6 mi SW 4.6 mph - -   Haze
6:00 PM 71.6 °F - 68.0 °F 88% 30.01 in 6.2 mi SW 4.6 mph - N/A   Mostly Cloudy
7:00 PM 71.6 °F - 69.8 °F 94% 30.04 in 5.0 mi SW 8.1 mph - N/A Rain Light Rain
7:15 PM 69.8 °F - 68.0 °F 94% 30.06 in 1.6 mi NW 5.8 mph - N/A Rain Rain Showers
8:00 PM 69.8 °F - 69.8 °F 100% 30.07 in 3.1 mi Calm Calm - N/A   Drizzle
8:40 PM 69.8 °F - 69.8 °F 100% 30.10 in 3.7 mi West 5.8 mph - N/A   Mostly Cloudy
9:00 PM 68 °F - 69 °F 100% 29.78 in 3 mi WNW 5.8 mph - -   Mist
9:00 PM 68.0 °F - 68.0 °F 100% 30.10 in 3.1 mi WNW 5.8 mph - N/A   Mostly Cloudy
10:00 PM 68.0 °F - 66.2 °F 94% 30.10 in 3.7 mi WNW 3.5 mph - N/A   Mostly Cloudy
11:00 PM 68.0 °F - 66.2 °F 94% 30.08 in 3.7 mi ESE 3.5 mph - N/A   Mostly Cloudy